Location: Bushey
(51.6333°N, 0.3667°W)
Time: 03:56:19
(UTC+00:00)

Cosmos 1000 Rocket - Visible Passes

Search period start: 14 June 2021 00:00
Search period end: 24 June 2021 00:00
Orbit: 953 x 993 km, 82.9° (Epoch: 13 June)

Date Brightness Start Highest point End Pass type
(mag) Time Alt. Az. Time Alt. Az. Time Alt. Az.
14 Jun 4.6 22:08:16 10° SSW 22:14:26 80° W 22:20:37 10° N visible
14 Jun 6.7 23:56:49 10° W 00:00:51 18° WNW 00:04:53 10° NNW visible
15 Jun 5.3 22:33:14 10° SSW 22:39:10 50° WNW 22:45:09 10° N visible
16 Jun 7.0 00:24:24 10° WNW 00:26:11 11° NW 00:28:00 10° NNW visible
16 Jun 4.7 21:12:29 10° SSE 21:18:26 55° E 21:24:24 10° NNE visible
16 Jun 6.0 22:58:41 10° SW 23:04:06 32° WNW 23:09:33 10° N visible
17 Jun 4.5 21:36:49 10° S 21:42:58 88° E 21:49:09 10° N visible
17 Jun 6.6 23:24:43 10° WSW 23:29:11 21° WNW 23:33:41 10° NNW visible
18 Jun 5.0 22:01:38 10° SSW 22:07:40 59° WNW 22:13:45 10° N visible
18 Jun 7.0 23:51:39 10° W 23:54:28 13° NW 23:57:17 10° NNW visible
19 Jun 5.8 22:26:54 10° SW 22:32:31 37° WNW 22:38:11 10° N visible
20 Jun 4.5 21:05:25 10° S 21:11:31 75° E 21:17:40 10° NNE visible
20 Jun 6.5 22:52:43 10° WSW 22:57:33 24° WNW 23:02:26 10° N visible
21 Jun 4.8 21:30:03 10° SSW 21:36:10 69° WNW 21:42:19 10° N visible
21 Jun 6.9 23:19:16 10° W 23:22:46 15° NW 23:26:18 10° NNW visible
22 Jun 5.6 21:55:10 10° SW 22:00:58 43° WNW 22:06:49 10° N visible
23 Jun 6.4 22:20:47 10° WSW 22:25:56 28° WNW 22:31:08 10° N visible
